C/2017 E2 ( Tsuchinshan )

Japanese version
Home page
Updated on May 20, 2017

---------------------------------------------------------------------

* Profile

Discovery Date March 1, 2017
Magnitude 19.7 mag
Discoverer H. B. Zhao, B. Li, G. Zhaori, R. Q. Hong, L. F. Hu (XuYi Station, Purple Mountain Observatory)

* Pictures

* Orbital Elements

Epoch 2016 May 12.0 TT = JDT 2457520.5
T 2016 May 11.98310 TT                                  MPCW
q   2.3521594            (2000.0)            P               Q
n   0.01003077     Peri.   89.39684     -0.02735223     -0.98004754
a  21.2934770      Node    11.56288     -0.21982705     -0.18622753
e   0.8895362      Incl.   79.16851     +0.97515533     -0.06947030
P  98.26
From 131 observations 2017 Mar. 1-Apr. 28, mean residual 0".4.

* Magnitudes Graph

        m1 = 11.0 + 5 log d + 10.0 log r

---------------------------------------------------------------------

The orbital elements are published on M.P.E.C. 2017-J52.
The magnitudes graphs are made with Comet for Windows.

---------------------------------------------------------------------

Copyright(C) Seiichi Yoshida (comet@aerith.net). All rights reserved.